Weather in Zemlyanskiy

Russia / Tambov Oblast     52°28′05″N   42°22′57″E
temp.,
°C
wind,
m/s
gust,
m/s
humid.,
%
clouds,
%
prec.,
mm/h
press.,
hPa
HPBL,
m
9 may, sun
sun900:00+12s51391100 0.8 1007442
03:00+11s4897100 0.8 1007223
06:00+11s3698100 0.4 1006226
09:00+11wsw4697100 6.2 1007425
12:00+7w6991100 3.3 1009460
15:00+7wsw4791100 5.8 1011607
18:00+6w5892100 0.1 1014595
21:00+5nw5996100 0.1 1016472
10 may, mon
mon1000:00+5nw61097100 0.0 1017462
03:00+5nnw51094100 0.0 1017549
06:00+6n61296100 0.6 1018617
09:00+6n81596100 2.4 1019579
12:00+7n101694100 1.6 1019540
15:00+9nne101892100 1.8 1019612
18:00+10nne101991100 0.1 1018577
21:00+10nne102190100 0.1 1019525
11 may, tue
tue1100:00+10ne7169296 0.1 1019510
03:00+10ne81891100 0.3 1019501
06:00+11ne71790100 0.1 1019544
09:00+11sse4694100 0.3 1022357
12:00+15ese587045 0.0 10231040
15:00+17se564778 0.0 10231322
18:00+13s4773100 0.0 1024244
21:00+10e1295100 3.4 1025176
12 may, wed
wed1200:00+10s1196100 1.7 1025114
03:00+10ese0197100 2.4 102450
06:00+10ssw1199100 9.1 102454
09:00+11nne3694100 10.2 1023239
12:00+16e478371 0.1 1022892
15:00+17ese3680100 0.3 1021239
18:00+16ese5981100 0.4 1021345
21:00+13ese41090100 0.4 1021311
13 may, thu
thu1300:00+12e4109172 0.1 1021252
03:00+11e4109496 0.3 1020216
06:00+13e41089100 0.2 1020291
09:00+15ese6879100 0.4 1019727
12:00+16ese5678100 0.0 1019615
15:00+20sse356852 0.1 10191146
18:00+19sse24780 1.0 1019321
21:00+15se22886 1.0 101915